User: anonymous   Login
Location: Asheville, NC
(35.6000°N, 82.5500°W)
Time: 22:51:05
(UTC-05:00)
Language:

AO-85 - Orbit

View from above orbital plane
View from above orbital plane
View from above satellite
View from above satellite

Ground track
Ground track

The orbit data is extracted from the following two-line orbital elements,

1 40967U 15058D   18015.24342418  .00000322  00000-0  53936-4 0 02088
2 40967 064.7768 295.5066 0190512 002.5466 357.6574 14.75620939031085
Epoch (UTC): 15 January 2018 05:50:31
Eccentricity: 0.0190512
inclination: 64.7768°
perigee height: 509 km
apogee height: 777 km
right ascension of ascending node: 295.5066°
argument of perigee: 2.5466°
revolutions per day: 14.75620939
mean anomaly at epoch: 357.6574°
orbit number at epoch: 3108

The dashed part of the orbit path shows where the satellite is in the earth's shadow,  

DLR